{"data":{"norad_id":39467,"epoch":"2026-05-25T02:49:30.900864Z","epoch_age_seconds":64110,"freshness":"FRESH","line1":"1 39467U 13072F   26145.11771876  .00005257  00000+0  26748-3 0  9996","line2":"2 39467 120.4597 212.6019 0159923 332.0640  27.1918 15.08467534111797","mean_motion":15.08467534,"eccentricity":0.0159923,"inclination_deg":120.4597,"raan_deg":212.6019,"arg_perigee_deg":332.064,"mean_anomaly_deg":27.1918,"bstar":0.00026748,"rev_number":11179,"period_min":95.46111981486,"perigee_km":430.23107357326,"apogee_km":651.53313196773,"semimajor_km":6919.0191027705,"source":"CELESTRAK","updated_at":"2026-05-25T13:37:55.405271Z"}}